Home   Weather   Rodgau   Past weeks

Flag for Germany Past Weather in Rodgau, Hesse, Germany — Yesterday and Last 2 Weeks

Now
23 °F

Clear.


Feels Like: 14 °F
Forecast: 22 / 32 °F
Wind: 8 mph from East

Location: Frankfurt-M-Flughafen Airport

Current Time: Dec 5, 2016 at 1:31:29 am

Latest Report: Dec 5, 2016 at 12:50 am


Visibility: 10 mi

Pressure: 30.36 "Hg

Humidity: 86%

Dew Point: 19 °F

Location of RodgauLocation

Past Weather in Rodgau — Graph

°F

Rodgau Temperature Yesterday

Maximum temperature yesterday: 37 °F (at 1:50 pm)
Minimum temperature yesterday: 21 °F (at 4:50 am)
Average temperature yesterday: 29 °F

High & Low Weather Summary for the Past Weeks

 TemperatureHumidityPressure
High59 °F (Nov 20, 3:20 pm)100% (Nov 22, 12:50 am)30.57 "Hg (Nov 22, 12:50 am)
Low18 °F (Nov 30, 8:20 am)47% (Nov 20, 12:50 pm)29.53 "Hg (Nov 20, 12:20 pm)
Average40 °F78%30.13 "Hg
* Reported Nov 20 12:20 am — Dec 5 12:20 am, Rodgau, Weather by CustomWeather, © 2016

Note: Actual official high and low records may vary slightly from our data, if they occured in-between our weather recording intervals... More about our weather records

Advertising

Rodgau Weather History for the Previous 24 Hours

Scroll right to see more
 ConditionsComfort  
Time TempWeatherWind HumidityBarometerVisibility
12:20 am
Mon, Dec 5
23 °FClear.8 mph86%30.36 "Hg10 mi
11:50 pm
Sun, Dec 4
23 °FClear.8 mph86%30.36 "Hg10 mi
11:20 pm25 °FClear.6 mph80%30.36 "Hg10 mi
10:50 pm30 °FPassing clouds.5 mph75%30.36 "HgN/A
10:20 pm28 °FPassing clouds.6 mph74%30.36 "HgN/A
9:50 pm28 °FClear.6 mph74%30.36 "Hg10 mi
9:20 pm28 °FClear.6 mph80%30.36 "Hg10 mi
8:50 pm30 °FClear.3 mph75%30.36 "Hg10 mi
8:20 pm28 °FClear.2 mph80%30.36 "Hg10 mi
7:50 pm28 °FClear.6 mph80%30.36 "Hg10 mi
7:20 pm28 °FClear.7 mph74%30.36 "Hg10 mi
6:50 pm30 °FClear.6 mph75%30.36 "Hg10 mi
6:20 pm32 °FPassing clouds.6 mph69%30.36 "HgN/A
5:50 pm32 °FPassing clouds.6 mph75%30.36 "HgN/A
5:20 pm32 °FClear.7 mph75%30.33 "Hg10 mi
4:50 pm34 °FClear.8 mph70%30.33 "Hg10 mi
4:20 pm36 °FSunny.8 mph70%30.33 "Hg10 mi
3:50 pm37 °FSunny.7 mph65%30.33 "Hg10 mi
3:20 pm37 °FSunny.8 mph60%30.33 "Hg10 mi
2:50 pm37 °FPassing clouds.8 mph60%30.33 "HgN/A
2:20 pm37 °FSunny.9 mph60%30.33 "Hg10 mi
1:50 pm37 °FSunny.9 mph60%30.36 "Hg10 mi
1:20 pm36 °FSunny.10 mph65%30.36 "Hg10 mi
12:50 pm36 °FSunny.9 mph65%30.36 "Hg10 mi
12:20 pm36 °FSunny.9 mph70%30.36 "Hg10 mi
11:50 am32 °FSunny.8 mph75%30.36 "Hg10 mi
11:20 am32 °FPassing clouds.7 mph69%30.36 "HgN/A
10:50 am30 °FSunny.7 mph75%30.39 "Hg10 mi
10:20 am30 °FSunny.8 mph75%30.36 "Hg10 mi
9:50 am28 °FSunny.8 mph80%30.36 "Hg10 mi
9:20 am25 °FSunny.5 mph86%30.36 "Hg10 mi
8:50 am23 °FSunny.6 mph93%30.36 "Hg10 mi
8:20 am23 °FSunny.5 mph86%30.36 "Hg10 mi
7:50 am23 °FClear.7 mph86%30.36 "Hg10 mi
7:20 am21 °FClear.6 mph93%30.33 "Hg10 mi
6:50 am23 °FClear.5 mph86%30.33 "Hg10 mi
6:20 am23 °FClear.5 mph93%30.33 "Hg10 mi
5:50 am25 °FClear.7 mph86%30.33 "Hg10 mi
5:20 am23 °FClear.8 mph86%30.33 "Hg10 mi
4:50 am21 °FClear.9 mph93%30.33 "Hg10 mi
4:20 am23 °FClear.7 mph86%30.33 "Hg10 mi
3:50 am23 °FClear.7 mph93%30.33 "Hg10 mi
3:20 am25 °FClear.6 mph93%30.33 "Hg10 mi
2:50 am25 °FClear.7 mph93%30.33 "Hg10 mi
2:20 am25 °FClear.6 mph93%30.33 "Hg10 mi
1:50 am27 °FClear.6 mph86%30.33 "Hg10 mi
1:20 am28 °FPassing clouds.5 mph80%30.33 "HgN/A
Weather by CustomWeather, © 2016

See weather overviewHow to use our weather pages